{"data":{"norad_id":53854,"intl_designator":"2022-114AN","name":"STARLINK-4800","alt_names":[],"object_type":"PAYLOAD","status":"ACTIVE","operator":null,"country":"US","launch_date":"2022-09-19","launch_site_code":"AFETR","launch_vehicle":null,"mission":null,"orbit_class":"UNKNOWN","rcs_meters":null,"size_class":null,"mass_kg":null,"dimensions":null,"purposes":["comms"],"wikipedia_slug":null,"has_3d_model":false,"image_url":null,"decayed_at":null,"tle_current":{"epoch":"2026-05-25T03:56:53.955168Z","epoch_age_seconds":71358,"freshness":"FRESH","line1":"1 53854U 22114AN  26145.16451337  .00000305  00000+0  37280-4 0  9994","line2":"2 53854  53.2138 301.0461 0001390  78.8034 281.3114 15.08832515204652","mean_motion":15.08832515,"eccentricity":0.000139,"inclination_deg":53.2138,"raan_deg":301.0461,"arg_perigee_deg":78.8034,"mean_anomaly_deg":281.3114,"bstar":3.728e-5,"rev_number":20465,"period_min":95.438028123353,"perigee_km":538.80467915505,"apogee_km":540.72785626347,"semimajor_km":6917.9032677093,"source":"CELESTRAK","updated_at":"2026-05-25T13:38:17.577233Z"}}}